Simultaneous Nadir Overpasses (SNOs) Predictions

Prediction of SNOs between GOES-15 and METOP-A Satellite Orbit:

Table of predicted SNOs for the next 14.0 days since TLE Epoch: 7/1/2013
Index Date Time (GOES-15) GOES-15 Lat,Lon METOP-A Lat,Lon Distance(km) Time Diff (sec)
1 07/01/2013 18:20:53 -0.08,-135.08 -0.46,-133.33 198.33 80
2 07/03/2013 06:42:32 0.06,-135.10 -0.57,-137.92 321.59 80
3 07/04/2013 06:19:13 0.08,-135.13 0.58,-132.93 250.82 80
4 07/05/2013 18:40:43 -0.05,-135.20 0.43,-137.48 259.69 80
5 07/06/2013 18:17:23 -0.07,-135.23 -0.67,-132.48 312.51 80
6 07/08/2013 06:39:02 0.05,-135.24 -0.35,-137.07 208.26 80
7 07/09/2013 06:15:42 0.07,-135.26 0.81,-132.08 363.45 80
8 07/10/2013 18:37:12 -0.05,-135.33 0.26,-136.62 148.12 80
9 07/11/2013 18:13:52 -0.07,-135.35 -0.90,-131.63 423.47 80
10 07/13/2013 06:35:31 0.04,-135.36 -0.16,-136.21 97.88 80
11 07/14/2013 06:12:11 0.06,-135.37 1.01,-131.23 473.18 80




NCC Satellite Simultaneous Nadir Overpasses (SNOs) Prediction Service
